Regional Weather Roundup
Issued by NWS

Home | Current Version | Previous Version | Text Only | Print | Product List | Glossary On
Versions: 1 2 3 4 5 6 7 8 9 10 11 12 13 14 15 16 17 18 19 20 21 22 23 24 25 26 27 28 29 30 31 32 33 34 35 36 37 38 39 40 41 42 43 44 45 46 47 48 49 50
000
ASUS45 KABQ 270801
RWRNM
NEW MEXICO REGIONAL WEATHER ROUNDUP
NATIONAL WEATHER SERVICE ALBUQUERQUE NM
200 AM MDT MON MAR 27 2017

NOTE: "FAIR" MEANS FEW OR NO CLOUDS BELOW 12,000 FEET AGL WITH NO
       SIGNIFICANT WEATHER OR OBSTRUCTIONS TO VISION.

      THIS PRODUCT IS RELEASED AS TWO VERSIONS.  ONE VERSION NEAR
      THE TOP OF THE HOUR CONTAINING PRELIMINARY DATA FROM ALBUQUERQUE
      AND OTHER STATIONS.  A FINAL VERSION WITH ADDITIONAL DATA IS
      ISSUED ABOUT 10 MINUTES AFTER THE HOUR.

NMZ501-503-504-510>518-270900-
NORTHWEST PLATEAU/NORTHCENTRAL MOUNTAINS

CITY           SKY/WX    TMP DP  RH WIND       PRES   REMARKS
FARMINGTON     FAIR      40  30  67 CALM      30.00S
LOS ALAMOS     FAIR      45  24  43 E6        30.07R
SANTA FE       FAIR      34  24  67 NE8       30.03S WCI  27
TAOS             N/A     32  21  64 E8        30.05S WCI  25
ANGEL FIRE     FAIR      30  25  83 CALM      30.07S

$$
NMZ402-403-502-505>509-270900-
WESTCENTRAL MOUNTAINS/SOUTHWEST MOUNTAINS

CITY           SKY/WX    TMP DP  RH WIND       PRES   REMARKS
GALLUP         FAIR      31  24  75 NE3       30.06F
GRANTS         FAIR      31  21  67 CALM      30.08S
SILVER CITY    FAIR      44  22  41 N9        30.04F

$$
NMZ407-409-411-412-270900-
SOUTHERN DESERTS

CITY           SKY/WX    TMP DP  RH WIND       PRES   REMARKS
DEMING         FAIR      50  21  32 W12       30.01S
LAS CRUCES     FAIR      51  17  25 W8        30.01S
HOLLOMAN AFB   FAIR      50  17  26 S6        30.00R
ALAMOGORDO     FAIR      48  16  27 CALM      29.98S
T OR C         FAIR      53  16  23 NW10      29.99S

$$
NMZ519>523-270900-
CENTRAL VALLEYS/CENTRAL HIGHLANDS

CITY           SKY/WX    TMP DP  RH WIND       PRES   REMARKS
ALBUQUERQUE    FAIR      48  24  39 CALM      30.02S
MORIARTY ARPT  FAIR      35  22  59 CALM      30.05S
CLINES CORNERS FAIR      40  22  48 NW12      30.04F WCI  33
BELEN          FAIR      41  20  43 CALM      30.02S
SOCORRO        FAIR      47  16  29 CALM      30.02R

$$
NMZ524>526-539-540-270900-
SOUTHCENTRAL MOUNTAINS

CITY           SKY/WX    TMP DP  RH WIND       PRES   REMARKS
RUIDOSO        NOT AVBL

$$
NMZ527>531-270900-
NORTHEAST HIGHLANDS/NORTHEAST PLAINS

CITY           SKY/WX    TMP DP  RH WIND       PRES   REMARKS
LAS VEGAS      FAIR      33  27  78 S8        30.03R WCI  26
RATON          FAIR      33  30  88 NW5       30.00R WCI  29
CLAYTON        FAIR      40  37  89 N9        29.97F WCI  34

$$
NMZ532>537-270900-
EASTCENTRAL PLAINS

CITY           SKY/WX    TMP DP  RH WIND       PRES   REMARKS
TUCUMCARI      FAIR      40  32  73 CALM      29.98R
CANNON AFB     FAIR      41  39  95 CALM      29.98R
CLOVIS AIRPORT FAIR      39  32  75 N12       29.97S WCI  32

$$
NMZ028-029-538-270900-
SOUTHEAST PLAINS

CITY           SKY/WX    TMP DP  RH WIND       PRES   REMARKS
ROSWELL        FAIR      51  19  28 N8          N/A
ARTESIA        FAIR      50  18  27 NW8       29.94R
CARLSBAD       FAIR      57  18  21 NE14      29.91R
HOBBS          FAIR      46  27  46 NW8       29.97R


$$



USA.gov is the U.S. government's official web portal to all federal, state and local government web resources and services.